COSMOS 2228 (22286 NORAD) Tracking and Keplerian Element Data

This shows tracking and keplerian element data for the satellite.

Feedback or suggestion? Click here.




ElementValue
Catalog22286
NameCOSMOS 2228
Epoch Orbit40367
Epoch Day349.12876652
Epoch Year2018
RAAN219.1466
Inclination82.5207
Eccentricity0.0022581
Argument of Perigee107.5946
Mean Anonmoly252.774
Mean Motion14.87996626
Decay Rate1.59E-06
L11 22286U 92094A 18349.12876652 .00000159 00000-0 14527-4 0 9994
L22 22286 82.5207 219.1466 0022581 107.5946 252.7740 14.87996626403670

Live tracking and technical data element details for COSMOS 2228 (NORAD 22286). COSMOS 2228 can be tracked NOW for your location showing map with azimuth and elevation plus other details from your city location.

Track the satellite on the map from your city or location and see movement details for azimuth, elevation, latitude, longitude, range, height, and movement on the map or in text.







IsCatalogInMostPopularTable: catalog: 22286, numindb: 42
Update: records affected: 1



GetName: 22286 COSMOS 2228

Hit Count: updated at: Sat, 15 Dec 2018 14:19:21 GMT